Regional Weather Roundup
Issued by NWS

Home | Current Version | Previous Version | Graphics & Text | Print | Product List | Glossary On
Versions: 1 2 3 4 5 6 7 8 9 10 11 12 13 14 15 16 17 18 19 20 21 22 23 24 25 26 27 28 29 30 31 32 33 34 35 36 37 38 39 40 41 42 43 44 45 46 47 48 49 50
088
ASUS43 KLSX 290559
RWRMO

WEATHER SUMMARY FOR MISSOURI
NATIONAL WEATHER SERVICE SPRINGFIELD MO
100 AM CDT MON MAY 29 2017

NOTE: "FAIR" INDICATES FEW OR NO CLOUDS BELOW 12,000 FEET WITH NO
       SIGNIFICANT WEATHER AND/OR OBSTRUCTIONS TO VISIBILITY.
       CURRENT SKY AND/OR WEATHER CONDITIONS ARE NOT AVAILABLE FOR
       CHILLICOTHE AND FARMINGTON.

MOZ001>031-035>038-043-044-053-054-290700-
...NORTHERN AND WESTERN MISSOURI...

CITY           SKY/WX    TMP DP  RH WIND       PRES   REMARKS
KANSAS CTY INT CLEAR     58  51  78 S7        29.94R
6HR MIN TEMP:  58; 6HR MAX TEMP:  77;

KANSAS C DTWN  CLEAR     64  54  69 SW6       29.93R
6HR MIN TEMP:  63; 6HR MAX TEMP:  80;

LEE`S SUMMIT   CLEAR     64  53  67 SW3       29.96R
6HR MIN TEMP:  62; 6HR MAX TEMP:  78;

ST JOSEPH      CLEAR     60  54  80 SW3       29.91F
6HR MIN TEMP:  57; 6HR MAX TEMP:  81;

CHILLICOTHE      N/A     60  51  72 CALM      29.91S
6HR MIN TEMP:  60; 6HR MAX TEMP:  79;

KIRKSVILLE     CLEAR     57  50  77 NW3       29.88F
6HR MIN TEMP:  56; 6HR MAX TEMP:  77;


$$
MOZ066>068-077>081-088>096-101>105-290700-
...SOUTHWEST MISSOURI...

CITY           SKY/WX    TMP DP  RH WIND       PRES   REMARKS
SPRINGFIELD    CLOUDY    62  56  80 SW8       29.98S
6HR MIN TEMP:  61; 6HR MAX TEMP:  76;

JOPLIN         CLEAR     62  56  80 S3        30.00S
6HR MIN TEMP:  61; 6HR MAX TEMP:  79;


$$
MOZ032>034-039>042-045>050-055>058-069>072-290700-
...CENTRAL MISSOURI...

CITY           SKY/WX    TMP DP  RH WIND       PRES   REMARKS
COLUMBIA       MOCLDY    63  56  78 S8        29.93R
6HR MIN TEMP:  61; 6HR MAX TEMP:  76;

JEFFERSON CITY CLEAR     64  57  78 CALM      29.92R
6HR MIN TEMP:  63; 6HR MAX TEMP:  80;

ROLLA          CLEAR     60  56  86 SW9       29.94R
6HR MIN TEMP:  59; 6HR MAX TEMP:  74;

SEDALIA        CLEAR     63  57  81 SW8       29.96R
6HR MIN TEMP:  63; 6HR MAX TEMP:  78;

WARRENSBURG    CLEAR     59  52  77 W3        29.96R
OSAGE BEACH    CLEAR     59  57  93 CALM      29.96S

$$
MOZ051-052-059>065-290700-
...EAST CENTRAL MISSOURI...

CITY           SKY/WX    TMP DP  RH WIND       PRES   REMARKS
ST LOUIS INTL  PTCLDY    69  56  62 SW10      29.89S
6HR MIN TEMP:  69; 6HR MAX TEMP:  80;

SPIRIT OF STL  CLEAR     62  58  86 W9        29.89S
6HR MIN TEMP:  61; 6HR MAX TEMP:  77;

ST CHARLES     CLEAR     61  59  93 CALM      29.88S
6HR MIN TEMP:  60; 6HR MAX TEMP:  80;


$$
MOZ072>076-082>087-097>100-106>115-290700-
...SOUTH CENTRAL AND SOUTHEAST MISSOURI...

CITY           SKY/WX    TMP DP  RH WIND       PRES   REMARKS
CAPE GIRARDEAU CLOUDY    61  58  90 CALM      29.92R
6HR MIN TEMP:  61; 6HR MAX TEMP:  77;

FARMINGTON     CLEAR     57  56  96 CALM      29.94S
6HR MIN TEMP:  57; 6HR MAX TEMP:  75;

POPLAR BLUFF   CLOUDY    64  62  93 CALM      29.93S
6HR MIN TEMP:  64; 6HR MAX TEMP:  78;

WEST PLAINS    CLOUDY    60  55  83 SW3       29.98S
6HR MIN TEMP:  58; 6HR MAX TEMP:  75;


$$




USA.gov is the U.S. government's official web portal to all federal, state and local government web resources and services.